www.pogodaiklimat.ru

Погода и климат >> Архив погоды >> Индонезия >> Тернат


ПОГОДА в Тернате

  • Прогноз погоды в Тернате
  • Монитор погоды в Тернате

АРХИВ ПОГОДЫ в Тернате

Время (UTC), дата Ветер
(напр.,м/с)
 
Видим.   Явления Облачность Т
(С)
Тd
(С)
f
(%)
Тe
(С)
Тes
(С)
Комфортность P
(гПа)
Po
(гПа)
Тmin
(С)
Tmax
(С)
R
(мм)
R24
(мм)
S
(см)
12 13.05 штиль 0 10 км 5/3 600 м
[Cu med, cong Ac trans Ci sp]
+27.2 +24.8 87 +39 +39 очень
душно
1012.3 1008.4 +32.2
15 13.05 штиль 0 10 км 5/3 600 м
[Cu med, cong Ac trans Ci fib]
+26.4 +24.6 90 +37 +37 очень
душно
1012.4 1008.5
18 13.05 З 2 10 км 4/3 600 м
[Cu med, cong Ac trans Ci fib]
+25.8 +22.8 84 +34 +34 очень
душно
1011.2 1007.3
21 13.05 ЮЗ 2 10 км 3/1 600 м
[Cu med, cong Ac trans Ci fib]
+24.4 +21.3 83 +31 +31 очень
душно
1011.3 1007.4
00 14.05 ЮВ 3 10 км 3/1 600 м
[Cu med, cong Ac trans Ci fib]
+28.8 +24.4 77 +40 +45 очень
душно
1012.9 1009.0 +24.6
03 14.05 СВ 3 10 км 4/3 600 м
[Cu med, cong Ac trans Ci fib]
+30.2 +24.8 73 +43 +54 опасность
перегрева
1012.1 1008.2
06 14.05 ЮВ 3 10 км 6/4 570 м
[Cu med, cong Ac trans Ci sp]
+31.6 +25.4 70 +46 +51 опасность
перегрева
1009.4 1005.5
09 14.05 СЗ 2 10 км 6/4 540 м
[Cu med, cong Ac trans Ci sp]
+30.8 +26.0 76 +46 +47 опасность
перегрева
1010.1 1006.2
12 14.05 штиль 0 10 км 5/4 540 м
[Cu med, cong Ac trans Ci fib]
+28.4 +24.6 80 +40 +40 очень
душно
1011.7 1007.8 +32.8
15 14.05 штиль 0 10 км 5/4 540 м
[Cu med, cong Ac trans Ci fib]
+26.6 +24.1 86 +37 +37 очень
душно
1012.0 1008.1
18 14.05 штиль 0 10 км 5/4 540 м
[Cu med, cong Ac trans Ci fib]
+26.2 +24.3 89 +36 +36 очень
душно
1011.0 1007.1
21 14.05 штиль 0 10 км 4/3 540 м
[Cu med, cong Ac trans Ci fib]
+25.0 +23.3 90 +33 +33 очень
душно
1012.1 1008.2
00 15.05 ЮВ 2 10 км 4/3 540 м
[Cu med, cong Ac trans Ci fib]
+29.2 +25.5 80 +43 +47 опасность
перегрева
1013.8 1009.9 +25.0
03 15.05 СВ 3 10 км 4/3 600 м
[Cu med, cong Ac trans Ci fib]
+30.6 +24.0 68 +42 +54 опасность
перегрева
1012.3 1008.4
06 15.05 СВ 3 9000 м слаб. дождь 8/5 540 м
[Cu med, cong Ac trans Ci sp]
+30.8 +25.7 74 +45 +49 опасность
перегрева
1010.1 1006.2 0.2
09 15.05 В 3 10 км в посл. час дождь 9/5 570 м
[Cu med, cong Ac trans Ci sp]
+29.4 +25.7 81 +44 +44 опасность
перегрева
1011.2 1007.3 0.1
12 15.05 штиль 0 10 км в посл. час гроза {дождь} 9/4 570 м
[Cu med, cong Ac trans Ci sp]
+27.6 +24.9 85 +39 +39 очень
душно
1012.6 1008.7 +32.8 0.1
15 15.05 В 2 9000 м осадки на расстоянии 9/5 540 м
[Cu med, cong Ac As Ci sp]
+28.0 +25.7 87 +41 +41 опасность
перегрева
1012.3 1008.4
18 15.05 штиль 0 9000 м 9/5 540 м
[Cu med, cong Ac As Ci sp]
+26.8 +25.3 92 +39 +39 очень
душно
1010.3 1006.4
21 15.05 штиль 0 9000 м 9/4 540 м
[Cu med, cong Ac trans Ci sp]
+25.4 +23.6 90 +35 +35 очень
душно
1010.9 1007.0
00 16.05 ЮВ 2 10 км {дождь} 4/3 570 м
[Cu med, cong Ac trans Ci fib]
+29.8 +25.8 79 +44 +49 опасность
перегрева
1012.0 1008.1 +26.0 0.3
03 16.05 ЮВ 3 10 км 4/3 600 м
[Cu med, cong Ac trans Ci fib]
+31.4 +25.5 71 +46 +56 опасность
перегрева
1011.1 1007.2
06 16.05 Ю 3 9000 м 8/4 540 м
[Cu med, cong Ac trans Ci sp]
+31.6 +25.1 69 +46 +50 опасность
перегрева
1008.8 1004.9
09 16.05 ЮВ 3 8000 м осадки на расстоянии 9/6 500 м
[Cu med, cong Ac As Ci sp]
+29.6 +25.0 76 +42 +43 опасность
перегрева
1009.6 1005.7
12 16.05 штиль 0 8000 м 8/5 540 м
[Cu med, cong Ac As Ci sp]
+28.4 +25.5 84 +42 +42 опасность
перегрева
1011.0 1007.1 +32.8
15 16.05 штиль 0 10 км 5/3 540 м
[Cu med, cong Ac trans Ci sp]
+26.6 +24.7 89 +38 +38 очень
душно
1011.1 1007.2
18 16.05 ЮЗ 1 9000 м гроза, ливневой дождь 9/6 450 м
[Cb cap Ac trans Ci sp]
+26.6 +25.3 93 +39 +39 очень
душно
1010.0 1006.1 0.0
21 16.05 штиль 0 4000 м гроза, ливневой дождь 9/8
[Cb cap Ac trans Ci sp]
+26.2 +25.1 94 +38 +38 очень
душно
1010.7 1006.8 4
00 17.05 ЮВ 3 7000 м слаб. дождь 9/6 480 м
[Cb cap Ac As Ci sp]
+26.6 +25.1 91 +38 +40 очень
душно
1012.4 1008.5 +25.4 12 16
03 17.05 З 2 9000 м в посл. час дождь 9/6 540 м
[Cu med, cong Ac As Ci sp]
+30.2 +25.9 78 +45 +50 опасность
перегрева
1011.2 1007.3 0.2
06 17.05 СВ 4 9000 м {дождь} 8/5 540 м
[Cu med, cong Ac trans Ci sp]
+30.8 +24.5 69 +43 +46 опасность
перегрева
1009.3 1005.4 0.2
09 17.05 Ю 1 9000 м 8/5 540 м
[Cu med, cong Ac trans Ci sp]
+30.0 +25.7 78 +45 +45 опасность
перегрева
1009.6 1005.7
12 17.05 штиль 0 9000 м 6/4 540 м
[Cu med, cong Ac trans Ci sp]
+27.0 +25.2 90 +39 +39 очень
душно
1011.5 1007.6 +31.8
15 17.05 З 2 10 км 4/3 540 м
[Cu med, cong Ac trans Ci fib]
+26.6 +23.6 84 +36 +36 очень
душно
1011.9 1008.0
18 17.05 ЮЗ 2 10 км 4/3 540 м
[Cu med, cong Ac trans Ci fib]
+26.0 +23.0 84 +35 +35 очень
душно
1010.7 1006.8
21 17.05 ЮЗ 1 10 км 5/4 540 м
[Cu med, cong Ac trans Ci fib]
+25.2 +23.4 90 +34 +34 очень
душно
1011.0 1007.1
00 18.05 ЮЗ 4 9000 м в посл. час дождь 8/4 500 м
[Cu med, cong Ac As Ci sp]
+28.2 +25.6 86 +42 +44 опасность
перегрева
1012.8 1008.9 +25.4 2
03 18.05 Ю 2 9000 м 8/4 540 м
[Cu med, cong Ac trans Ci sp]
+31.6 +25.7 71 +47 +54 опасность
перегрева
1012.2 1008.3
06 18.05 ЮЗ 1 9000 м 8/4 540 м
[Cu med, cong Ac trans Ci sp]
+32.2 +24.8 65 +45 +51 опасность
перегрева
1009.9 1006.0
09 18.05 В 1 10 км 6/4 540 м
[Cu med, cong Ac trans Ci sp]
+30.0 +25.1 75 +43 +44 опасность
перегрева
1010.3 1006.4
12 18.05 штиль 0 10 км 5/3 570 м
[Cu med, cong Ac trans Ci sp]
+28.0 +24.2 80 +39 +39 очень
душно
1012.0 1008.1 +32.8
15 18.05 ЮЗ 2 10 км 4/3 600 м
[Cu med, cong Ac trans Ci fib]
+26.2 +23.7 86 +36 +36 очень
душно
1012.1 1008.2
18 18.05 З 2 10 км 4/3 570 м
[Cu med, cong Ac trans Ci fib]
+25.8 +23.6 88 +35 +35 очень
душно
1012.0 1008.1
21 18.05 ЮЗ 2 10 км 4/3 570 м
[Cu med, cong Ac trans Ci fib]
+25.6 +23.4 88 +35 +35 очень
душно
1011.3 1007.4
00 19.05 З 2 10 км 4/3 570 м
[Cu med, cong Ac trans Ci fib]
+30.2 +24.1 70 +42 +47 опасность
перегрева
1012.7 1008.8 +25.6
03 19.05 ЮВ 3 10 км 6/5 540 м
[Cu med, cong Ac trans Ci fib]
+30.8 +24.8 70 +44 +51 опасность
перегрева
1012.7 1008.8
06 19.05 С 4 10 км 5/4 540 м
[Cu med, cong Ac trans Ci fib]
+31.0 +24.1 67 +43 +47 опасность
перегрева
1010.8 1006.9
09 19.05 ЮВ 4 10 км 8/3 570 м
[Cu med, cong As op Ci fib]
+30.0 +25.2 76 +44 +44 опасность
перегрева
1010.9 1007.0
12 19.05 ЮЗ 1 10 км 4/1 570 м
[Cu med, cong Ac trans Ci fib]
+28.0 +24.7 82 +40 +40 очень
душно
1012.4 1008.5 +32.6
15 19.05 штиль 0 10 км 4/3 570 м
[Cu med, cong Ac trans Ci fib]
+26.2 +23.8 87 +36 +36 очень
душно
1013.0 1009.1
18 19.05 З 2 10 км 4/3 570 м
[Cu med, cong Ac trans Ci fib]
+25.0 +22.9 88 +33 +33 очень
душно
1011.3 1007.4
21 19.05 З 2 10 км 5/3 570 м
[Cu med, cong Ac trans Ci sp]
+25.2 +22.8 87 +33 +33 очень
душно
1011.4 1007.5
00 20.05 штиль 0 10 км 8/4 540 м
[Cu med, cong As op Ci fib]
+28.6 +25.7 84 +42 +46 опасность
перегрева
1012.5 1008.6 +25.6
03 20.05 В 2 10 км 9/5 540 м
[Cu med, cong As op Ci fib]
+29.8 +25.8 79 +44 +50 опасность
перегрева
1012.0 1008.1
06 20.05 В 4 10 км 8/5 540 м
[Cu med, cong As op Ci fib]
+30.6 +24.9 72 +44 +47 опасность
перегрева
1010.1 1006.2
09 20.05 Ю 2 10 км 8/5 540 м
[Cu med, cong As op Ci fib]
+30.0 +25.1 75 +43 +43 опасность
перегрева
1010.1 1006.2

 

Местоположение метеостанции Тернат (Индонезия): широта 0.77 долгота 127.36 высота над уровнем моря 23 м.

В архиве по умолчанию представлена погода в Тернате за последнюю неделю. Архивные данные за месяц целиком и за предыдущие месяцы, начиная с января 2011 года, Вы можете получить, выбрав интересующий диапазон дат из раскрывающегося списка и нажав кнопку "Ввод!".


*Определитесь, кто Вы:
робот инопланетянин человек

Внимание! Время в таблицах - всемирное. Для получения местного времени необходимо прибавить поправку, которая равна 9 ч.

Смотрите также архив погоды в соседних городах и на ближайших метеорологических станциях:

Погода в Голеа (Индонезия) (128 км)
Погода в Лабухе (Индонезия) (156 км)
Погода в Битунге (Индонезия) (253 км)
Погода в Менадо (Индонезия) (285 км)
Погода на Санане (Индонезия) (351 км)
Погода в Намлеа (Индонезия) (448 км)
Погода в Аэропорту Соронг-Джефман (Индонезия) (458 км)
Погода в Горонтало (Индонезия) (479 км)
Погода в Амахаи (Индонезия) (488 км)
Погода в Амбоне (Индонезия) (504 км)

Пояснения к столбцам:

Ветер - указаны скорость ветра в м/с - средняя за 10 мин, порывы в срок и между сроками (в фигурных скобках) и направление, откуда дует ветер: С - северный, СВ - северо-восточный, В - восточный, ЮВ - юго-восточный, Ю - южный, ЮЗ - юго-западный, З - западный, СЗ - северо-западный.
Видимость - горизонтальная дальность видимости в метрах или километрах. При видимости от 1 до 10 км при отсутствии осадков обычно наблюдается дымка, при ухудшении видимости до 1 км и менее - туман. В сухую погоду видимость может ухудшаться дымом, пылью или мглою.
Явления - указаны атмосферные явления, наблюдавшиеся в срок или в последний час перед сроком; фигурными скобками обозначены явления, наблюдавшиеся между сроками (за 1-3 часа до срока); квадратными скобками обозначены град или гололедные отложения с указанием их диаметра в мм.
Облачность - указаны через наклонную черту общая и нижняя облачность в баллах и высота нижней границы облаков в метрах; квадратными скобками обозначены формы облаков: Ci - перистые, Cs - перисто-слоистые, Cc - перисто-кучевые, Ac - высококучевые, As - высокослоистые, Sc - слоисто-кучевые, Ns - слоисто-дождевые, Cu - кучевые, Cb - кучево-дождевые. Подробнее классификацию облаков см. в Атласе облаков (PDF).
T - Температура воздуха - температура, измеренная на высоте 2 м над землей.
Td - Температура точки росы - температура, при понижении до которой содержащийся в воздухе водяной пар достигнет насыщения.
f - Относительная влажность воздуха - влажноcть воздуха, измеренная на высоте 2 м над землей.
Te - Эффективная температура - температура, которую ощущает одетый по сезону человек в тени. Характеристика душности погоды. При расчете учитывается влияние влажности воздуха и скорости ветра на теплоощущения человека.
Tes - Эффективная температура на солнце - температура, которую ощущает человек, с поправкой на солнечный нагрев. Характеристика знойности погоды. Зависит от высоты солнца над горизонтом, облачности и скорости ветра. Ночью, в пасмурную погоду, а также при ветре 12 м/с и более поправка равна нулю.
P - Атмосферное давление - приведенное к уровню моря атмосферное давление.
Po - Атмосферное давление - измеренное на уровне метеостанции атмосферное давление.
Tmin - Минимальная температура - минимум температуры воздуха на высоте 2 м над землей.
Tmax - Максимальная температура - максимум температуры воздуха на высоте 2 м над землей.
R - Количество осадков - Количество выпавших осадков за период времени, мм. При наведении курсора мыши на число - период времени, за который выпало указанное количество осадков.
R24 - Количество осадков - Количество выпавших осадков за 24 часа, мм.
S - Снежный покров - Высота снежного покрова, см. При наведении курсора мыши на число - состояние снежного покрова и степень покрытия местности в баллах.